Retour au catalogue

SL-14 DEB

ActifPO
NORAD 27639·DEBRIS·🇷🇺 Russia

Lancé Aug 18, 1987 depuis Plesetsk Cosmodrome

Loading…

Prochains Passages (prochaines 24 heures)

TLE

FraisSource: Space-Track

Époque: Sep 13, 2026, 01:47 UTC

1 27639U 87068CM  26256.07443591  .00000124  00000-0  11948-3 0  9993
2 27639  82.5125   2.5288 0065503 241.4962 295.3121 13.72317083653242

Suivez SL-14 DEB en temps réel avec AllMySat

Download on the App Store